Location: Bachas
(43.2439°N, 0.9375°E)
Time: 15:37:44
(UTC+00:00)

Cosmos 2221 - Pass Details

Date: 18 February 2020
Orbit: 593 x 616 km, 82.5° (Epoch: 08 April)

Event Time Altitude Azimuth Distance (km) Brightness Sun altitude
Rises 04:26:15 0° 169° (SSE) 2,818 6.0 -26.9°
Reaches altitude 10° 04:28:32 10° 162° (SSE) 1,924 5.2 -26.5°
Maximum altitude 04:32:30 40° 92° (E) 883 3.8 -25.8°
Drops below altitude 10° 04:36:32 10° 23° (NNE) 1,949 5.5 -25.1°
Sets 04:38:51 0° 16° (NNE) 2,860 6.3 -24.7°
